| time (UTC) | temp F | wind direction | speed MPH | gust MPH | rain 1hr in | rain 24hr in | rain mn in | humidity % | barometer mb |
| 20260504130739 | 51 | 257 | 7.0 | 18.0 | 0.00 | 0.00 | 0.00 | 69 | 1005.7 |
| 20260504130234 | 51 | 307 | 6.0 | 15.0 | 0.00 | 0.00 | 0.00 | 69 | 1005.7 |
| 20260504120122 | 51 | 251 | 8.0 | 16.0 | 0.00 | 0.00 | 0.00 | 72 | 1005.4 |
| 20260504110515 | 48 | 216 | 5.0 | 13.0 | 0.00 | 0.00 | 0.00 | 79 | 1006.0 |
| 20260504100403 | 47 | 225 | 2.0 | 6.0 | 0.00 | 0.00 | 0.00 | 81 | 1006.2 |
| 20260504081657 | 46 | 215 | 4.0 | 10.0 | 0.00 | 0.00 | 0.00 | 74 | 1006.8 |
| 20260504081154 | 46 | 278 | 3.0 | 10.0 | 0.00 | 0.00 | 0.00 | 74 | 1006.9 |
| 20260504080651 | 46 | 271 | 3.0 | 9.0 | 0.00 | 0.00 | 0.00 | 73 | 1006.8 |
| 20260504080152 | 46 | 249 | 3.0 | 9.0 | 0.00 | 0.00 | 0.00 | 73 | 1006.9 |
| 20260504070152 | 45 | 212 | 2.0 | 6.0 | 0.00 | 0.00 | 0.00 | 68 | 1007.1 |
| 20260504060127 | 38 | 353 | 0.0 | 2.0 | 0.00 | 0.00 | 0.00 | 81 | 1007.2 |
| 20260504050604 | 36 | 23 | 0.0 | 1.0 | 0.00 | 0.00 | 0.00 | 82 | 1007.4 |
| 20260504045555 | 36 | 23 | 1.0 | 6.0 | 0.00 | 0.00 | 0.00 | 79 | 1007.5 |
| 20260504045056 | 37 | 297 | 1.0 | 6.0 | 0.00 | 0.00 | 0.00 | 80 | 1007.6 |
| 20260504044553 | 36 | 170 | 0.0 | 0.0 | 0.00 | 0.00 | 0.00 | 82 | 1007.6 |
| 20260504044051 | 36 | 232 | 0.0 | 2.0 | 0.00 | 0.00 | 0.00 | 81 | 1007.5 |
| 20260504043551 | 37 | 167 | 1.0 | 2.0 | 0.00 | 0.00 | 0.00 | 80 | 1007.7 |
| 20260504043050 | 36 | 160 | 0.0 | 2.0 | 0.00 | 0.00 | 0.00 | 78 | 1007.7 |
| 20260504042547 | 36 | 158 | 0.0 | 2.0 | 0.00 | 0.00 | 0.00 | 78 | 1007.8 |
| 20260504041546 | 35 | 143 | 1.0 | 2.0 | 0.00 | 0.00 | 0.00 | 80 | 1007.7 |
| 20260504041045 | 36 | 149 | 1.0 | 3.0 | 0.00 | 0.00 | 0.00 | 78 | 1007.7 |
| 20260504040546 | 37 | 175 | 2.0 | 3.0 | 0.00 | 0.00 | 0.00 | 75 | 1007.7 |
| 20260504035546 | 37 | 167 | 1.0 | 3.0 | 0.00 | 0.00 | 0.00 | 74 | 1007.7 |
| 20260504035040 | 37 | 169 | 1.0 | 3.0 | 0.00 | 0.00 | 0.00 | 73 | 1007.7 |
| 20260504034534 | 37 | 166 | 1.0 | 2.0 | 0.00 | 0.00 | 0.00 | 74 | 1007.8 |
| 20260504034028 | 37 | 167 | 1.0 | 3.0 | 0.00 | 0.00 | 0.00 | 76 | 1007.8 |
| 20260504033521 | 38 | 154 | 1.0 | 3.0 | 0.00 | 0.00 | 0.00 | 72 | 1007.7 |
| 20260504032510 | 38 | 146 | 1.0 | 2.0 | 0.00 | 0.00 | 0.00 | 70 | 1007.7 |
| 20260504031458 | 39 | 141 | 0.0 | 4.0 | 0.00 | 0.01 | 0.00 | 68 | 1007.8 |
| 20260504030952 | 41 | 230 | 1.0 | 4.0 | 0.00 | 0.01 | 0.00 | 65 | 1007.7 |
| 20260504030446 | 42 | 168 | 2.0 | 5.0 | 0.00 | 0.01 | 0.00 | 61 | 1007.7 |
| 20260504025940 | 42 | 186 | 2.0 | 5.0 | 0.00 | 0.01 | 0.00 | 59 | 1007.8 |
| 20260504025434 | 42 | 215 | 3.0 | 5.0 | 0.00 | 0.01 | 0.00 | 62 | 1007.8 |
| 20260504024928 | 43 | 205 | 4.0 | 6.0 | 0.00 | 0.01 | 0.00 | 58 | 1007.9 |
| 20260504024421 | 43 | 197 | 4.0 | 6.0 | 0.00 | 0.01 | 0.00 | 58 | 1007.9 |
| 20260504023915 | 43 | 179 | 3.0 | 6.0 | 0.00 | 0.01 | 0.00 | 59 | 1008.0 |
| 20260504023410 | 43 | 239 | 3.0 | 7.0 | 0.00 | 0.01 | 0.00 | 59 | 1008.0 |
| 20260504022358 | 42 | 186 | 3.0 | 5.0 | 0.00 | 0.01 | 0.00 | 60 | 1008.1 |
| 20260504021851 | 42 | 188 | 3.0 | 7.0 | 0.00 | 0.01 | 0.00 | 62 | 1008.1 |
| 20260504021349 | 41 | 197 | 3.0 | 7.0 | 0.00 | 0.01 | 0.00 | 64 | 1008.1 |
| 20260504020848 | 40 | 191 | 3.0 | 4.0 | 0.00 | 0.01 | 0.00 | 67 | 1008.0 |
| 20260504015850 | 41 | 170 | 3.0 | 6.0 | 0.00 | 0.01 | 0.00 | 66 | 1007.9 |
| 20260504015346 | 41 | 172 | 3.0 | 6.0 | 0.00 | 0.01 | 0.00 | 65 | 1007.9 |
| 20260504014846 | 42 | 193 | 4.0 | 5.0 | 0.00 | 0.01 | 0.00 | 64 | 1007.9 |
| 20260504014346 | 42 | 188 | 4.0 | 6.0 | 0.00 | 0.01 | 0.00 | 63 | 1008.0 |
| 20260504013344 | 42 | 197 | 4.0 | 7.0 | 0.00 | 0.01 | 0.00 | 61 | 1008.0 |
| 20260504012342 | 42 | 193 | 4.0 | 7.0 | 0.00 | 0.01 | 0.00 | 62 | 1007.9 |
| 20260504011842 | 42 | 184 | 4.0 | 5.0 | 0.00 | 0.01 | 0.00 | 63 | 1007.9 |
| 20260504011342 | 42 | 193 | 4.0 | 6.0 | 0.00 | 0.01 | 0.00 | 64 | 1007.9 |
| 20260504010842 | 42 | 200 | 4.0 | 6.0 | 0.00 | 0.01 | 0.00 | 64 | 1007.9 |
| 20260504010342 | 42 | 190 | 4.0 | 8.0 | 0.00 | 0.01 | 0.00 | 65 | 1007.8 |
| 20260504005842 | 42 | 189 | 5.0 | 8.0 | 0.00 | 0.01 | 0.00 | 66 | 1007.8 |
| 20260504005346 | 42 | 182 | 5.0 | 7.0 | 0.00 | 0.02 | 0.00 | 66 | 1007.7 |
| 20260504004845 | 42 | 196 | 4.0 | 6.0 | 0.00 | 0.02 | 0.00 | 64 | 1007.7 |
| 20260504003833 | 44 | 177 | 4.0 | 5.0 | 0.00 | 0.02 | 0.00 | 61 | 1007.7 |
| 20260504003327 | 44 | 179 | 3.0 | 5.0 | 0.00 | 0.02 | 0.00 | 60 | 1007.7 |
| 20260504002821 | 45 | 184 | 3.0 | 5.0 | 0.00 | 0.02 | 0.00 | 58 | 1007.7 |
| 20260504001810 | 46 | 191 | 2.0 | 5.0 | 0.00 | 0.02 | 0.00 | 55 | 1007.6 |
| 20260504000758 | 46 | 191 | 2.0 | 3.0 | 0.00 | 0.02 | 0.00 | 55 | 1007.6 |
| 20260504000252 | 47 | 224 | 1.0 | 3.0 | 0.00 | 0.02 | 0.00 | 54 | 1007.6 |
| 20260503235745 | 47 | 205 | 2.0 | 5.0 | 0.00 | 0.02 | 0.00 | 53 | 1007.5 |
| 20260503235239 | 47 | 211 | 2.0 | 5.0 | 0.00 | 0.02 | 0.00 | 53 | 1007.6 |
| 20260503234227 | 48 | 240 | 2.0 | 4.0 | 0.00 | 0.02 | 0.00 | 53 | 1007.5 |
| 20260503233726 | 48 | 235 | 1.0 | 5.0 | 0.00 | 0.02 | 0.00 | 53 | 1007.4 |
| 20260503233226 | 48 | 217 | 1.0 | 5.0 | 0.00 | 0.02 | 0.00 | 53 | 1007.4 |
| 20260503232724 | 48 | 262 | 1.0 | 4.0 | 0.00 | 0.02 | 0.00 | 53 | 1007.4 |
| 20260503232222 | 48 | 212 | 1.0 | 4.0 | 0.00 | 0.02 | 0.00 | 52 | 1007.4 |
| 20260503231720 | 48 | 264 | 1.0 | 4.0 | 0.00 | 0.02 | 0.00 | 52 | 1007.4 |
| 20260503231220 | 48 | 323 | 2.0 | 4.0 | 0.00 | 0.02 | 0.00 | 51 | 1007.4 |
| 20260503230720 | 48 | 290 | 2.0 | 5.0 | 0.00 | 0.02 | 0.00 | 50 | 1007.4 |
| 20260503230220 | 48 | 245 | 2.0 | 5.0 | 0.00 | 0.02 | 0.00 | 51 | 1007.4 |
| 20260503225720 | 49 | 270 | 1.0 | 4.0 | 0.00 | 0.02 | 0.00 | 50 | 1007.4 |
| 20260503225221 | 49 | 264 | 1.0 | 4.0 | 0.00 | 0.02 | 0.00 | 50 | 1007.4 |
| 20260503224722 | 49 | 248 | 1.0 | 4.0 | 0.00 | 0.03 | 0.00 | 49 | 1007.5 |
| 20260503223720 | 49 | 339 | 1.0 | 7.0 | 0.00 | 0.03 | 0.00 | 48 | 1007.5 |
| 20260503223220 | 49 | 327 | 1.0 | 4.0 | 0.00 | 0.03 | 0.00 | 49 | 1007.4 |
| 20260503222719 | 49 | 262 | 2.0 | 5.0 | 0.00 | 0.03 | 0.00 | 49 | 1007.5 |
| 20260503221717 | 49 | 283 | 2.0 | 6.0 | 0.00 | 0.03 | 0.00 | 49 | 1007.5 |
| 20260503221212 | 49 | 304 | 3.0 | 7.0 | 0.00 | 0.03 | 0.00 | 48 | 1007.4 |
| 20260503220210 | 49 | 326 | 2.0 | 8.0 | 0.00 | 0.03 | 0.00 | 48 | 1007.5 |
| 20260503215710 | 50 | 256 | 3.0 | 7.0 | 0.00 | 0.03 | 0.00 | 49 | 1007.4 |
| 20260503215210 | 50 | 274 | 4.0 | 9.0 | 0.00 | 0.03 | 0.00 | 49 | 1007.4 |
| 20260503214710 | 49 | 259 | 3.0 | 9.0 | 0.00 | 0.03 | 0.00 | 50 | 1007.5 |
| 20260503214208 | 49 | 299 | 2.0 | 8.0 | 0.00 | 0.03 | 0.00 | 49 | 1007.5 |
| 20260503213705 | 49 | 345 | 3.0 | 8.0 | 0.00 | 0.03 | 0.00 | 49 | 1007.5 |
| 20260503213204 | 49 | 351 | 4.0 | 10.0 | 0.00 | 0.03 | 0.00 | 48 | 1007.6 |
| 20260503212704 | 49 | 298 | 4.0 | 10.0 | 0.00 | 0.03 | 0.00 | 48 | 1007.5 |
| 20260503212202 | 49 | 294 | 3.0 | 10.0 | 0.00 | 0.03 | 0.00 | 48 | 1007.6 |
| 20260503211702 | 50 | 336 | 4.0 | 8.0 | 0.00 | 0.03 | 0.00 | 48 | 1007.6 |
| 20260503210701 | 49 | 246 | 3.0 | 8.0 | 0.00 | 0.03 | 0.00 | 49 | 1007.5 |
| 20260503210200 | 49 | 277 | 3.0 | 6.0 | 0.00 | 0.03 | 0.00 | 52 | 1007.4 |
| 20260503205703 | 49 | 13 | 3.0 | 7.0 | 0.00 | 0.03 | 0.00 | 49 | 1007.5 |
| 20260503205157 | 49 | 308 | 5.0 | 13.0 | 0.00 | 0.03 | 0.00 | 52 | 1007.5 |
| 20260503204651 | 49 | 216 | 6.0 | 13.0 | 0.00 | 0.03 | 0.00 | 50 | 1007.5 |
| 20260503204145 | 49 | 280 | 5.0 | 12.0 | 0.00 | 0.03 | 0.00 | 51 | 1007.6 |
| 20260503203640 | 49 | 17 | 4.0 | 12.0 | 0.00 | 0.03 | 0.00 | 50 | 1007.5 |
| 20260503203133 | 49 | 290 | 4.0 | 10.0 | 0.00 | 0.03 | 0.00 | 52 | 1007.5 |
| 20260503202627 | 49 | 320 | 5.0 | 10.0 | 0.00 | 0.03 | 0.00 | 51 | 1007.7 |
| 20260503202121 | 48 | 323 | 5.0 | 10.0 | 0.00 | 0.03 | 0.00 | 53 | 1007.7 |
| 20260503201615 | 48 | 335 | 4.0 | 9.0 | 0.00 | 0.03 | 0.00 | 53 | 1007.7 |
| 20260503201109 | 47 | 20 | 5.0 | 10.0 | 0.00 | 0.03 | 0.00 | 53 | 1007.7 |
| 20260503200604 | 47 | 323 | 5.0 | 10.0 | 0.00 | 0.03 | 0.00 | 54 | 1007.8 |
| 20260503200057 | 47 | 309 | 6.0 | 16.0 | 0.00 | 0.03 | 0.00 | 54 | 1007.9 |
| 20260503195551 | 47 | 44 | 5.0 | 16.0 | 0.00 | 0.03 | 0.00 | 54 | 1007.9 |
| 20260503195045 | 47 | 309 | 4.0 | 11.0 | 0.00 | 0.03 | 0.00 | 54 | 1008.0 |
| 20260503194539 | 47 | 326 | 5.0 | 13.0 | 0.00 | 0.03 | 0.00 | 53 | 1008.0 |
| 20260503194033 | 47 | 25 | 4.0 | 13.0 | 0.00 | 0.03 | 0.00 | 52 | 1008.0 |
| 20260503193527 | 47 | 339 | 4.0 | 11.0 | 0.00 | 0.03 | 0.00 | 54 | 1008.0 |
| 20260503193021 | 47 | 320 | 4.0 | 11.0 | 0.00 | 0.03 | 0.00 | 53 | 1008.0 |
| 20260503192516 | 48 | 294 | 4.0 | 11.0 | 0.00 | 0.03 | 0.00 | 54 | 1007.9 |
| 20260503192009 | 48 | 290 | 4.0 | 9.0 | 0.00 | 0.03 | 0.00 | 55 | 1008.0 |
| 20260503191503 | 48 | 339 | 4.0 | 11.0 | 0.00 | 0.03 | 0.00 | 54 | 1008.2 |
| 20260503190957 | 47 | 271 | 4.0 | 11.0 | 0.00 | 0.03 | 0.00 | 55 | 1008.2 |
| 20260503185945 | 47 | 247 | 3.0 | 10.0 | 0.00 | 0.03 | 0.00 | 55 | 1008.4 |
| 20260503185440 | 47 | 330 | 4.0 | 13.0 | 0.00 | 0.03 | 0.00 | 54 | 1008.3 |
| 20260503184933 | 47 | 49 | 4.0 | 13.0 | 0.00 | 0.03 | 0.00 | 54 | 1008.2 |
| 20260503184428 | 47 | 18 | 4.0 | 11.0 | 0.00 | 0.03 | 0.00 | 57 | 1008.3 |
| 20260503183416 | 47 | 293 | 3.0 | 8.0 | 0.00 | 0.03 | 0.00 | 56 | 1008.3 |
| 20260503182909 | 47 | 212 | 3.0 | 8.0 | 0.00 | 0.03 | 0.00 | 55 | 1008.3 |
| 20260503182403 | 47 | 6 | 5.0 | 10.0 | 0.00 | 0.03 | 0.00 | 56 | 1008.3 |
| 20260503181858 | 47 | 338 | 4.0 | 10.0 | 0.00 | 0.03 | 0.00 | 55 | 1008.3 |
| 20260503181351 | 47 | 309 | 2.0 | 7.0 | 0.00 | 0.03 | 0.00 | 57 | 1008.4 |
| 20260503180845 | 47 | 327 | 2.0 | 9.0 | 0.00 | 0.03 | 0.00 | 59 | 1008.5 |
| 20260503180340 | 46 | 328 | 3.0 | 9.0 | 0.00 | 0.03 | 0.00 | 56 | 1008.5 |
| 20260503175833 | 46 | 346 | 4.0 | 9.0 | 0.00 | 0.03 | 0.00 | 56 | 1008.6 |
| 20260503175327 | 46 | 283 | 5.0 | 14.0 | 0.00 | 0.03 | 0.00 | 56 | 1008.6 |
| 20260503174822 | 46 | 300 | 5.0 | 14.0 | 0.00 | 0.03 | 0.00 | 55 | 1008.5 |
| 20260503174315 | 47 | 5 | 5.0 | 12.0 | 0.00 | 0.03 | 0.00 | 56 | 1008.6 |
| 20260503173304 | 47 | 337 | 4.0 | 12.0 | 0.00 | 0.03 | 0.00 | 57 | 1008.5 |
| 20260503170733 | 47 | 326 | 4.0 | 12.0 | 0.00 | 0.03 | 0.00 | 52 | 1008.5 |
| 20260503170227 | 47 | 40 | 5.0 | 14.0 | 0.00 | 0.03 | 0.00 | 53 | 1008.6 |
| 20260503160116 | 46 | 77 | 5.0 | 12.0 | 0.00 | 0.03 | 0.00 | 55 | 1009.1 |
| 20260503150509 | 45 | 265 | 2.0 | 6.0 | 0.00 | 0.03 | 0.00 | 60 | 1009.6 |